DLH430 EDDF-KORD

Flight info

Callsign DLH430
Flight time N/A
Altitude 34000
Route OBOKA3M/25C OBOKA Z28 DIBIR DCT BUDIP DCT GODOS DCT GIGUL DCT UPNAL DCT DOKEN DCT ERAKA/M083F360 DCT 60N020W 61N030W 61N040W 60N050W DCT URTAK/N0483F360 N890B LOMTA/N0481F380 N890B SSM WYNDE3
Aircraft A346/H-SDE2E3FGHIJ3J4J5M1RWXY/LB1D1

Departure

Time 2026-04-15 15:59
Airport Frankfurt Main Airport (EDDF)

Arrival

Time N/A
Airport Chicago O'Hare International Airport (KORD)
Time Latitude Longitude Altitude Speed Heading
2026-04-15 15:27 50.04756 8.56388 369 ft 0 kts 340°
2026-04-15 15:48 50.04754 8.56390 364 ft 3 kts 340°
2026-04-15 15:48 50.04729 8.56404 368 ft 4 kts 338°
2026-04-15 15:48 50.04705 8.56422 365 ft 4 kts 330°
2026-04-15 15:48 50.04684 8.56444 371 ft 4 kts 315°
2026-04-15 15:49 50.04670 8.56475 370 ft 4 kts 297°
2026-04-15 15:49 50.04658 8.56499 371 ft 4 kts 331°
2026-04-15 15:49 50.04644 8.56504 369 ft 4 kts 13°
2026-04-15 15:49 50.04639 8.56502 369 ft 4 kts 23°
2026-04-15 15:50 50.04652 8.56501 369 ft 4 kts 340°
2026-04-15 15:50 50.04663 8.56482 370 ft 4 kts 300°
2026-04-15 15:50 50.04667 8.56449 370 ft 4 kts 269°
2026-04-15 15:50 50.04662 8.56415 368 ft 1 kts 252°
2026-04-15 15:51 50.04662 8.56414 368 ft 0 kts 250°
2026-04-15 15:52 50.04661 8.56413 368 ft 1 kts 250°
2026-04-15 15:53 50.04651 8.56369 368 ft 11 kts 249°
2026-04-15 15:53 50.04611 8.56202 369 ft 18 kts 249°
2026-04-15 15:53 50.04564 8.56013 368 ft 19 kts 241°
2026-04-15 15:53 50.04446 8.55922 369 ft 20 kts 193°
2026-04-15 15:54 50.04305 8.55953 367 ft 21 kts 162°
2026-04-15 15:54 50.04208 8.55921 366 ft 13 kts 181°
2026-04-15 15:54 50.04114 8.55959 365 ft 15 kts 161°
2026-04-15 15:54 50.04085 8.56073 365 ft 13 kts 78°
2026-04-15 15:55 50.04112 8.56213 365 ft 14 kts 71°
2026-04-15 15:55 50.04145 8.56354 366 ft 14 kts 70°
2026-04-15 15:55 50.04179 8.56496 370 ft 14 kts 70°
2026-04-15 15:55 50.04214 8.56641 368 ft 14 kts 69°
2026-04-15 15:56 50.04248 8.56784 371 ft 14 kts 70°
2026-04-15 15:56 50.04291 8.56964 371 ft 22 kts 69°
2026-04-15 15:56 50.04349 8.57207 371 ft 24 kts 69°
2026-04-15 15:56 50.04410 8.57460 371 ft 25 kts 70°
2026-04-15 15:57 50.04471 8.57717 377 ft 25 kts 70°
2026-04-15 15:57 50.04534 8.57981 374 ft 26 kts 69°
2026-04-15 15:57 50.04600 8.58254 377 ft 26 kts 69°
2026-04-15 15:57 50.04652 8.58484 380 ft 17 kts 84°
2026-04-15 15:58 50.04575 8.58597 381 ft 16 kts 157°
2026-04-15 15:58 50.04500 8.58605 384 ft 11 kts 221°
2026-04-15 15:58 50.04462 8.58483 381 ft 22 kts 249°
2026-04-15 15:58 50.04338 8.57970 376 ft 78 kts 249°
2026-04-15 15:59 50.04087 8.56923 370 ft 127 kts 250°
2026-04-15 15:59 50.03732 8.55435 361 ft 168 kts 249°
2026-04-15 15:59 50.03289 8.53603 527 ft 185 kts 250°
2026-04-15 15:59 50.02798 8.51740 997 ft 184 kts 242°
2026-04-15 16:00 50.02050 8.50137 1459 ft 182 kts 219°
2026-04-15 16:00 50.00948 8.49250 1828 ft 184 kts 194°
2026-04-15 16:00 49.99671 8.48755 2090 ft 194 kts 195°
2026-04-15 16:00 49.98345 8.48151 2365 ft 202 kts 197°
2026-04-15 16:01 49.96991 8.47513 2760 ft 204 kts 197°
2026-04-15 16:01 49.95630 8.46878 3181 ft 206 kts 197°
2026-04-15 16:01 49.94218 8.46219 3433 ft 217 kts 197°
2026-04-15 16:01 49.92726 8.45520 3647 ft 230 kts 198°
2026-04-15 16:02 49.91322 8.44294 3946 ft 240 kts 224°
2026-04-15 16:02 49.90324 8.42199 4457 ft 241 kts 238°
2026-04-15 16:02 49.89469 8.39944 4969 ft 242 kts 239°
2026-04-15 16:02 49.88742 8.37603 5442 ft 246 kts 254°
2026-04-15 16:03 49.88545 8.34943 5858 ft 254 kts 272°
2026-04-15 16:03 49.88687 8.32121 6139 ft 268 kts 275°
2026-04-15 16:03 49.88874 8.29229 6560 ft 274 kts 276°
2026-04-15 16:03 49.89332 8.26347 7059 ft 277 kts 292°
2026-04-15 16:04 49.90302 8.23764 7597 ft 278 kts 305°
2026-04-15 16:04 49.91465 8.21356 8139 ft 278 kts 306°
2026-04-15 16:04 49.92649 8.18949 8653 ft 280 kts 306°
2026-04-15 16:04 49.93877 8.16594 9248 ft 285 kts 310°
2026-04-15 16:05 49.95281 8.14402 9993 ft 287 kts 316°
2026-04-15 16:05 49.96798 8.12348 10631 ft 290 kts 317°
2026-04-15 16:05 49.98367 8.10265 10959 ft 305 kts 317°
2026-04-15 16:05 50.00024 8.08063 11260 ft 321 kts 317°
2026-04-15 16:06 50.01768 8.05738 11527 ft 337 kts 317°
2026-04-15 16:06 50.03589 8.03304 11798 ft 352 kts 317°
2026-04-15 16:06 50.05489 8.00759 12078 ft 367 kts 317°
2026-04-15 16:06 50.07438 7.98145 12428 ft 378 kts 317°
2026-04-15 16:07 50.09446 7.95450 12971 ft 381 kts 317°
2026-04-15 16:07 50.11458 7.92748 13210 ft 383 kts 317°
2026-04-15 16:07 50.15553 7.87234 14419 ft 388 kts 317°
2026-04-15 16:08 50.17575 7.84504 15060 ft 389 kts 317°
2026-04-15 16:08 50.19637 7.81717 15635 ft 393 kts 317°
2026-04-15 16:08 50.21719 7.78899 16174 ft 397 kts 317°
2026-04-15 16:08 50.23865 7.76123 16722 ft 402 kts 321°
2026-04-15 16:09 50.26170 7.73683 17283 ft 407 kts 327°
2026-04-15 16:09 50.28691 7.71576 17844 ft 412 kts 332°
2026-04-15 16:09 50.31288 7.69748 18383 ft 416 kts 334°
2026-04-15 16:09 50.36578 7.66184 19324 ft 422 kts 334°
2026-04-15 16:10 50.42225 7.62327 20371 ft 426 kts 334°
2026-04-15 16:10 50.47834 7.58463 21362 ft 431 kts 334°
2026-04-15 16:10 50.53594 7.54421 22368 ft 436 kts 332°
2026-04-15 16:10 50.59215 7.49504 23364 ft 439 kts 326°
2026-04-15 16:11 50.64863 7.43715 24211 ft 446 kts 324°
2026-04-15 16:11 50.70528 7.37866 24978 ft 451 kts 324°
2026-04-15 16:11 50.75698 7.30785 25778 ft 452 kts 309°
2026-04-15 16:11 50.80325 7.20905 26699 ft 455 kts 303°
2026-04-15 16:12 50.84485 7.11419 27503 ft 460 kts 303°
2026-04-15 16:12 50.88571 7.02193 28260 ft 465 kts 303°
2026-04-15 16:12 50.92842 6.92546 29203 ft 466 kts 303°
2026-04-15 16:12 50.96780 6.83627 30349 ft 461 kts 303°
2026-04-15 16:13 51.00873 6.74319 31260 ft 458 kts 302°
2026-04-15 16:13 51.04897 6.65133 32196 ft 454 kts 302°
2026-04-15 16:13 51.08829 6.56137 32914 ft 454 kts 301°
2026-04-15 16:13 51.12774 6.47053 33517 ft 457 kts 301°
2026-04-15 16:14 51.16539 6.38361 34122 ft 458 kts 301°
2026-04-15 16:14 51.24337 6.20265 34133 ft 458 kts 301°